Location: Cedar Ridge
(38.0658°N, 120.2769°W)
Time: 21:40:30
(UTC+00:00)

GP-B - Pass Details

Date: 10 September 2024
Orbit: 623 x 626 km, 89.8° (Epoch: 12 October)

Event Time Altitude Azimuth Distance (km) Brightness Sun altitude
Rises 13:05:28 0° 187° (S) 2,899 6.3 -7.4°
Reaches altitude 10° 13:07:42 10° 191° (SSW) 1,997 5.4 -6.9°
Maximum altitude 13:12:01 56° 270° (W) 752 3.2 -6.1°
Drops below altitude 10° 13:16:21 10° 349° (NNW) 2,010 5.7 -5.3°
Sets 13:18:37 0° 353° (N) 2,921 6.6 -4.8°
